CDT,Max TemperatureF,Mean TemperatureF,Min TemperatureF,Max Dew PointF,MeanDew PointF,Min DewpointF,Max Humidity, Mean Humidity, Min Humidity, Max Sea Level PressureIn, Mean Sea Level PressureIn, Min Sea Level PressureIn, Max VisibilityMiles, Mean VisibilityMiles, Min VisibilityMiles, Max Wind SpeedMPH, Mean Wind SpeedMPH, Max Gust SpeedMPH,PrecipitationIn, CloudCover, Events, WindDirDegrees
2013-9-1,107,91,75,67,59,51,58,38,17,29.85,29.79,29.74,10,10,10,24,8,30,0.00,0,,167
2013-9-2,100,88,75,69,64,58,79,54,28,29.98,29.90,29.83,10,10,10,20,8,24,0.00,1,,57
2013-9-3,97,82,66,60,54,46,76,47,18,30.03,29.96,29.90,10,10,10,15,7,22,0.00,1,,39
2013-9-4,100,82,64,65,57,47,84,51,18,30.05,29.99,29.94,10,10,10,15,7,20,0.00,1,,58
2013-9-5,101,87,73,66,60,54,68,45,22,30.07,30.02,29.96,10,10,10,16,6,21,0.00,2,,112
2013-9-6,101,87,73,64,60,57,64,44,24,30.05,29.98,29.91,10,10,9,20,7,24,0.00,2,,149
2013-9-7,100,87,73,70,63,57,68,46,24,29.98,29.93,29.88,10,10,7,29,7,38,T,1,Rain-Thunderstorm,182
2013-9-8,100,85,70,66,61,54,90,56,22,29.95,29.89,29.82,10,10,10,18,9,24,0.00,0,,167
2013-9-9,96,82,68,66,61,56,81,53,25,29.96,29.90,29.85,10,10,10,22,11,26,0.00,1,,172
2013-9-10,94,81,67,67,63,60,84,59,33,30.06,29.99,29.93,10,10,10,23,12,28,0.00,3,,160
2013-9-11,96,83,69,67,62,57,84,56,28,30.10,30.04,29.96,10,10,10,18,8,35,0.00,1,,157
2013-9-12,98,84,69,65,62,57,79,53,27,30.06,29.99,29.91,10,9,7,18,5,22,0.00,3,,109
2013-9-13,93,84,75,69,67,64,82,62,41,29.97,29.93,29.87,10,9,3,28,11,32,T,5,Rain-Thunderstorm,67
2013-9-14,94,84,73,69,64,60,84,60,36,29.95,29.90,29.83,10,10,8,17,11,21,0.00,4,,108
2013-9-15,97,85,72,65,62,60,64,48,31,29.98,29.93,29.89,10,10,9,18,9,23,0.00,1,,153
2013-9-16,94,83,72,67,64,61,74,55,36,30.08,30.01,29.95,10,10,7,22,7,28,0.00,4,Thunderstorm,123
2013-9-17,94,82,69,68,64,59,97,65,33,30.04,29.99,29.93,10,9,6,24,9,29,T,4,,165
2013-9-18,97,85,73,66,61,53,73,49,24,29.96,29.89,29.81,10,10,10,25,12,30,0.00,2,,178
2013-9-19,87,80,73,69,64,60,79,62,45,29.94,29.89,29.84,10,10,10,21,10,24,0.01,5,,193
2013-9-20,73,67,60,71,66,57,100,89,78,30.00,29.95,29.89,10,7,2,21,11,25,1.34,7,Rain,24
2013-9-21,82,69,55,56,52,47,93,62,30,30.04,29.96,29.88,10,10,10,14,7,20,0.00,0,,14
2013-9-22,85,70,55,54,49,43,83,53,23,29.92,29.85,29.77,10,10,10,14,6,17,0.00,0,,127
2013-9-23,86,71,56,56,52,48,86,58,29,29.82,29.77,29.69,10,10,10,21,12,30,0.00,0,,154
2013-9-24,91,77,63,57,48,39,73,45,17,29.96,29.89,29.82,10,10,10,18,8,24,0.00,0,,19
2013-9-25,93,76,59,59,52,46,72,48,23,29.88,29.80,29.71,10,10,9,16,7,21,0.00,0,,155
2013-9-26,94,81,68,59,55,52,61,44,26,29.81,29.76,29.71,10,10,10,25,16,33,0.00,0,,169
2013-9-27,90,78,65,70,63,53,81,63,44,29.86,29.80,29.74,10,10,10,26,15,33,0.00,0,,156
2013-9-28,80,69,58,72,64,53,100,77,53,30.11,29.93,29.77,10,8,1,24,12,28,0.62,6,Rain-Thunderstorm,14
2013-9-29,79,65,51,54,49,44,89,60,30,30.10,30.02,29.92,10,10,4,9,6,14,0.00,0,,337
2013-9-30,88,71,53,53,51,48,93,60,26,29.91,29.83,29.75,10,10,10,20,9,23,0.00,0,,163